NIMBUS 2 DEB, 28978

Orbit data source: Space-Track

NIMBUS 2 DEB, 28978 is space debris in SSO originally from a launch on Sun, 15 May 1966 UTC launched from the Air Force Western Test Range (AFWTR). Debris objects in space refer to the collection of defunct objects orbiting the Earth. Examples of debris include non-operational satellites, rocket bodies, and fragments generated from explosions, collisions, or faulty payload assembly.

Loading next visibility...
Identifier
28978, 1966-040AP
Orbit
SSO
Country
Flag of USUS
Related business
Manufacturer
Unknown
Mission
Spacecraft
Bus & Motor
Unknown
Mass
Unknown
Launch date (UTC)
1966-05-15 (59 years ago)
Launch vehicle
Unknown
Launch site
Air Force Western Test Range (AFWTR)
Object type
Payload
Rocket body
Debris
Shape & HBR
Unknown
Radar Cross Section
Small (<0.1 m²)

Expand to show TLE details & history
Last TLE update: 15 hours ago

TLE from 15 hours ago
0 NIMBUS 2 DEB
1 28978U 66040AP  25261.22660823  .00001639  00000-0  25825-2 0  9998
2 28978 100.3722 179.3476 0044663 328.1190 192.5140 13.51315192893176
Epoch: 2025-09-18T05:26Z
TLE epoch observation values (Epoch: 2025-09-18T05:26:18.951Z)
Latitude
19.14631°
Longitude
-75.99786°
Altitude
1,102.194 km
Speed
7.287 km/s
True Right ascension
00h 11m 53s
True Declination
19° 02' 42"
Sunlit
Object was in full shadow at epoch
Visualization orbit readout
Latitude
Unknown
Longitude
Unknown
Altitude
Unknown
Speed
Unknown
Apparent Right ascension
Unknown
Apparent Declination
Unknown
Sunlit
N/A
Visualization observer readout
Local Sidereal Time
12:50:42
Azimuth
Unknown
Elevation
Unknown
Doppler factor
Unknown
Orbital elements
Apogee altitude
1,098.001 km
Perigee altitude
1,031.517 km
Semi-major axis
7,442.896 km
Eccentricity
0.00447
Inclination
100.3722°
RAAN
179.3476°
Arg. of periapsis
328.119°
True anomaly
192.40371°
Mean anomaly
192.514°
Eccentric anomaly
192.45879°
Mean motion
3.38011 °/min
Orbital period
106.51 mins
BSTAR
0.0025825
Loading maneuver chart data...
Computing Atmospheric mass density...
Loading historical data...
Loading historical data...
Loading historical data...
Loading historical data...
Loading historical data...
Loading historical data...
Loading historical data...

Documentation

Showing up to 5 results
|